Simultaneous Nadir Overpasses (SNOs) Predictions

Prediction of SNOs between GOES-16 and LANDSAT-8 Satellite Orbit:

Table of predicted SNOs for the next 14.0 days since TLE Epoch: 1/24/2025
Index Date Time (GOES-16) GOES-16 Lat,Lon LANDSAT-8 Lat,Lon Distance(km) Time Diff (sec)
1 01/25/2025 03:30:34 0.01, -75.18 -0.82, -79.11 446.99 80
2 01/26/2025 14:57:00 -0.01, -75.22 -0.91, -70.97 483.30 80
3 01/27/2025 03:18:25 0.01, -75.18 -0.18, -76.17 111.22 80
4 01/29/2025 03:03:35 0.00, -75.19 0.43, -73.21 225.25 80
5 01/29/2025 15:24:51 -0.00, -75.23 0.66, -78.37 356.94 80
6 01/31/2025 15:12:41 -0.00, -75.25 0.03, -75.42 19.52 80
7 02/02/2025 15:03:11 -0.00, -75.27 -0.62, -72.48 318.69 80
8 02/03/2025 03:24:34 0.00, -75.25 -0.50, -77.67 274.90 80
9 02/05/2025 03:09:44 0.00, -75.27 0.12, -74.71 63.84 80
10 02/07/2025 02:57:33 -0.00, -75.30 0.76, -71.76 402.97 80
11 02/07/2025 15:18:47 0.00, -75.34 0.37, -76.91 178.90 80
